SCP
1 1 1 0 0 0 0 0 0 0 0 0 0 0 0 0 0 0 0 0 0 0 0 0 0 0 0 0 0 0 0 0 0 0 0 0 0 0 0 0 0 0 0 0 0 0 0 0 0
1 0 0 0 0 0 0 0 0 0 0 0 0 0 0 0 0 0 0 0 0 0 0 0 0 0 0 0 0 0 0 0 0 0 0 0 0 0 0 0 0 0 0 0 0 0 0 0 0
0 0 0 0 0 0 0 0 0 0 0 0 0 0 0 0 0 0 0 0 0 0 0 0 0 0 0 0 0 0 0 0 0 0 0 0 0 0 0 0 0 0 0 0 0 0 0 0 0
0 0 0 0 0 0 0 0 0 0 0 0 0 0 0 0 0 0 0 0 0 0 0 0 0 0 0 0 0 0 0 0 0 0 0 0 0 0 0 0 0 0 0 0 0 0 0 0 0
0 0 0 0 0 0 0 0 0 0 0 0 0 0 0 0 0 0 0 0 0 0 0 0 0 0 0 0 0 0 0 0 0 0 0 0 0 0 0 0 0 0 0 0 0 0 0 0 0
0 0 0 0 0 0 0 0 0 0 0 0 0 0 0 0 0 0 0 0 0 0 0 0 0 0 0 0 0 0 0 0 0 0 0 0 0 0 0 0 0 0 0 0 0 0 0 0 0
0 0 0 0 0 0 0 0 0 0 0 0 0 0 0 0 0 0 0 0 0 0 0 0 0 0 0 0 0 0 0 0 0 0 0 0 0 0 0 0 0 0 0 0 0 0 0 0 0
0 0 0 0 0 0 0 0 0 0 0 0 0 0 0 0 0 0 0 0 0 0 0 0 0 0 0 0 0 0 0 0 0 0 0 0 0 0 0 0 0 0 0 0 0 0 0 0 0
0 0 0 0 0 0 0 0 0 0 0 0 0 0 0 0 0 0 0 0 0 0 0 0 0 0 0 0 0 0 0 0 0 0 0 0 0 0 0 0 0 0 0 0 0 0 0 0 0
0 0 0 0 0 0 0 0 0 0 0 0 0 0 0 0 0 0 0 0 0 0 0 0 0 0 0 0 0 0 0 0 0 0 0 0 0 0 0 0 0 0 0 0 0 0 0 0 0
0 0 0 0 0 0 0 0 0 0 0 0 0 0 0 0 0 0 0 0 0 0 0 0 0 0 0 0 0 0 0 0 0 0 0 0 0 0 0 0 0 0 0 0 0 0 0 0 0
0 0 0 0 0 0 0 0 0 0 0 0 0 0 0 0 0 0 0 0 0 0 0 0 0 0 0 0 0 0 0 0 0 0 0 0 0 0 0 0 0 0 0 0 0 0 0 0 0
0 0 0 0 0 0 0 0 0 0 0 0 0 0 0 0 0 0 0 0 0 0 0 0 0 0 0 0 0 0 0 0 0 0 0 0 0 0 0 0 0 0 0 0 0 0 0 0 0
0 0 0 0 0 0 0 0 0 0 0 0 0 0 0 0 0 0 0 0 0 0 0 0 0 0 0 0 0 0 0 0 0 0 0 0 0 0 0 0 0 0 0 0 0 0 0 0 0
0 0 0 0 0 0 0 0 0 0 0 0 0 0 0 0 0 0 0 0 0 0 0 0 0 0 0 0 0 0 0 0 0 0 0 0 0 0 0 0 0 0 0 0 0 0 0 0 0
0 0 0 0 0 0 0 0 0 0 0 0 0 0 0 0 0 0 0 0 0 0 0 0 0 0 0 0 0 0 0 0 0 0 0 0 0 0 0 0 0 0 0 0 0 0 0 0 0
0 0 0 0 0 0 0 0 0 0 0 0 0 0 0 0 0 0 0 0 0 0 0 0 0 0 0 0 0 0 0 0 0 0 0 0 0 0 0 0 0 0 0 0 0 0 0 0 0
0 0 0 0 0 0 0 0 0 0 0 0 0 0 0 0 0 0 0 0 0 1 1 0 0 0 0 0 0 0 0 0 0 0 0 0 0 0 0 0 0 0 0 0 0 0 0 0 0
0 0 0 0 0 0 0 0 0 0 0 0 0 0 0 0 0 0 0 0 1 1 1 1 1 1 0 0 0 0 0 0 0 0 0 0 0 0 0 0 0 0 0 0 0 0 0 0 0
0 0 0 0 0 0 0 0 0 0 0 0 0 0 0 0 0 0 0 0 1 1 1 1 1 1 1 0 0 0 0 0 0 0 0 0 0 0 0 0 0 0 0 0 0 0 0 0 0
0 0 0 0 0 0 0 0 0 0 0 0 0 0 0 0 0 0 0 1 1 1 1 1 1 1 1 1 0 0 0 0 0 0 0 0 0 0 0 0 0 0 0 0 0 0 0 0 0
0 0 0 0 0 0 0 0 0 0 0 0 0 0 0 0 0 0 1 1 1 1 1 1 1 1 1 1 1 0 0 0 0 0 0 0 0 0 0 0 0 0 0 0 0 0 0 0 0
0 0 0 0 0 0 0 0 0 0 0 0 0 0 0 0 0 0 0 1 1 1 1 1 1 1 1 1 1 1 0 0 0 0 0 0 0 0 0 0 0 0 0 0 0 0 0 0 0
0 0 0 0 0 0 0 0 0 0 0 0 0 0 0 0 0 0 1 1 1 1 1 1 1 1 1 1 1 1 0 0 0 0 0 0 0 0 0 0 0 0 0 0 0 0 0 0 0
0 0 0 0 0 0 0 0 0 0 0 0 0 0 0 0 0 1 1 1 1 1 1 1 1 1 1 1 1 1 1 0 0 0 0 0 0 0 0 0 0 0 0 0 0 0 0 0 0
0 0 0 0 0 0 0 0 0 0 0 0 0 0 0 0 0 1 1 1 1 1 1 1 1 1 1 1 1 1 1 0 0 0 0 0 0 0 0 0 0 0 0 0 0 0 0 0 0
0 0 0 0 0 0 0 0 0 0 0 0 0 0 0 1 1 1 1 1 1 1 1 1 1 1 1 1 1 1 1 0 0 0 0 0 0 0 0 0 0 0 0 0 0 0 0 0 0
0 0 0 0 0 0 0 0 0 0 0 0 0 0 1 1 1 1 1 1 1 1 1 1 1 1 1 1 1 1 1 1 0 0 0 0 0 0 0 0 0 0 0 0 0 0 0 0 0
0 0 0 0 0 0 0 0 0 0 0 0 0 1 1 1 1 1 1 1 1 1 1 1 1 1 1 1 1 1 1 1 1 1 1 1 1 1 1 1 0 0 0 0 0 0 0 0 0
0 0 0 0 0 0 0 0 0 0 0 0 0 1 1 1 1 1 1 1 1 1 1 1 1 1 1 1 1 1 1 1 1 1 1 1 1 1 1 1 1 1 0 0 0 0 0 0 0
Wind_Speed
13 12 7 6 3 7 14 11 9 9 8 9 8 6 9 10 10 10 8 8 8 8 9 10 9 8 9 10 11 11 11 11 11 11 11 11 11 12 12 12 11 11 12 12 12 12 12 12 12
10 8 7 4 4 11 13 11 12 11 8 7 8 8 10 11 10 10 9 8 8 8 9 9 10 9 9 10 10 10 11 11 10 10 10 11 11 11 11 11 11 11 11 12 12 12 12 11 11
8 8 4 3 11 13 13 11 11 9 7 6 7 8 8 9 9 7 9 9 8 8 8 11 9 9 9 9 10 10 10 10 10 10 10 10 10 10 10 11 10 10 11 11 11 12 11 11 11
6 6 1 6 15 13 11 9 8 8 8 6 7 10 9 8 6 9 11 9 9 8 8 12 8 8 9 9 9 9 9 9 9 9 10 10 9 9 10 10 11 11 11 11 11 11 11 10 10
6 2 5 11 15 12 10 8 6 7 7 7 8 11 11 8 9 12 10 9 9 8 8 12 9 9 9 9 9 8 8 8 9 9 10 10 9 9 10 10 11 10 11 10 10 10 9 9 9
2 1 7 12 13 9 9 7 7 9 9 8 9 11 10 8 10 10 10 8 8 8 9 11 10 8 8 8 8 8 7 8 8 9 9 10 9 9 10 10 10 10 10 10 9 9 9 8 8
2 5 11 12 11 10 8 6 7 8 9 8 7 10 10 10 10 9 9 7 7 7 8 8 9 9 9 8 8 7 7 7 8 8 8 9 9 9 9 9 9 9 9 9 9 8 8 7 7
3 2 10 11 10 11 8 6 6 7 9 7 4 7 10 12 10 10 9 8 6 6 6 7 7 7 7 9 8 7 7 7 7 7 8 8 9 9 9 9 8 8 8 8 8 8 7 7 7
4 3 10 10 9 9 7 7 7 6 9 7 5 8 13 15 12 10 9 8 7 6 5 5 6 6 6 6 9 8 7 7 7 7 8 6 6 7 7 9 8 8 8 8 8 8 7 7 8
2 5 11 8 7 8 7 7 7 7 8 8 9 11 14 14 11 10 9 9 8 7 6 5 5 6 6 5 6 4 5 6 4 4 5 4 4 4 5 9 8 8 8 8 7 7 8 7 6
1 6 7 6 7 7 8 7 6 6 7 8 11 14 14 13 10 9 8 7 7 7 6 6 5 4 4 4 3 3 2 4 4 5 4 3 3 4 4 4 6 6 8 6 7 7 4 3 2
2 4 4 6 6 6 6 7 6 4 7 8 11 14 14 12 10 8 7 7 7 7 6 5 6 4 3 2 3 3 3 3 3 4 3 3 2 2 3 2 3 3 3 3 3 2 3 2 3
3 4 4 6 6 6 6 6 5 6 7 9 12 13 12 11 10 8 7 6 6 7 6 6 5 5 4 3 2 2 2 3 4 3 3 2 2 3 3 2 1 2 3 3 3 3 3 3 3
3 5 6 6 7 6 6 6 5 7 9 11 12 12 11 10 9 9 8 7 7 7 7 6 6 6 5 4 2 2 2 2 2 3 3 2 2 2 2 3 2 2 2 2 2 3 3 2 2
5 6 7 6 6 6 6 6 6 9 11 11 12 11 10 10 9 9 9 8 8 8 7 7 7 6 5 4 4 3 3 3 3 3 3 3 3 3 2 2 2 2 2 3 3 3 2 3 3
6 7 6 7 7 6 8 3 8 10 12 12 11 11 10 10 10 9 9 8 8 8 8 7 6 7 6 4 3 3 2 3 3 3 3 3 2 3 2 2 2 2 3 3 2 3 2 2 2
9 7 4 6 8 6 9 3 8 10 11 11 11 11 11 10 11 10 9 9 9 8 8 8 7 7 7 6 4 4 3 2 3 3 3 3 3 3 3 2 2 3 3 2 3 2 2 2 2
6 5 5 5 7 9 9 6 7 10 11 11 11 11 11 11 11 11 10 10 9 9 9 9 8 8 7 6 5 3 3 4 3 3 3 3 3 4 3 3 3 3 3 2 2 2 2 2 3
6 7 6 3 4 8 9 8 6 10 11 11 12 12 12 11 10 10 10 10 10 10 10 9 9 8 7 5 5 5 4 4 4 4 4 5 4 4 4 3 3 4 3 3 4 3 4 4 3
8 9 7 4 4 6 7 8 6 9 12 11 12 12 12 11 11 11 11 11 12 11 11 11 10 10 9 6 4 3 3 3 3 3 3 5 5 5 5 4 4 4 3 4 4 4 4 3 3
10 9 7 5 5 8 7 8 8 8 10 11 11 11 12 12 12 12 12 12 12 12 12 10 10 10 9 8 6 4 4 4 4 4 4 4 5 5 5 5 5 4 5 4 5 5 6 4 4
10 7 7 7 9 6 7 6 6 7 9 11 12 12 12 12 12 12 13 13 13 12 12 11 11 10 9 9 8 8 6 5 4 4 3 4 4 4 4 5 5 5 4 4 6 6 5 5 4
6 3 6 8 9 8 7 8 3 6 7 9 11 11 11 12 12 13 13 13 12 12 11 11 11 10 10 9 9 8 7 5 4 4 4 4 4 4 4 4 4 4 4 4 5 4 5 5 5
5 6 6 8 10 11 8 9 6 4 4 5 7 9 10 10 11 11 12 11 11 11 11 10 11 10 10 10 10 9 8 6 5 5 4 4 4 4 4 5 4 4 4 4 5 5 6 5 5
11 11 9 10 10 10 6 9 5 2 2 4 4 7 9 10 11 12 12 12 12 12 12 11 11 10 10 10 10 9 9 8 7 6 5 4 3 3 4 4 4 4 4 4 4 4 5 5 5
13 15 13 11 10 9 8 9 4 1 1 3 3 5 8 10 10 11 12 12 12 12 12 11 11 10 10 10 9 8 8 7 5 6 5 4 4 3 3 4 4 4 4 4 4 4 5 4 5
12 13 13 13 12 11 8 6 5 3 3 3 4 6 7 8 9 10 11 11 11 11 11 11 11 10 10 10 9 8 8 7 6 5 6 5 4 4 4 4 4 4 4 4 4 3 4 4 5
8 9 8 12 12 12 11 10 6 4 3 4 5 6 6 6 8 9 9 10 10 11 10 10 10 10 10 9 9 7 8 8 7 6 6 5 5 4 5 6 5 5 5 4 4 4 3 4 4
8 9 10 10 11 12 11 6 1 1 1 2 3 4 5 6 7 7 8 8 9 10 10 10 10 9 9 9 8 7 7 8 7 7 7 6 6 6 6 6 6 5 5 4 4 4 4 4 4
8 9 11 11 10 10 11 3 5 2 1 0 1 2 4 4 5 7 7 7 8 9 9 10 9 9 9 8 8 8 7 7 7 7 7 6 6 6 6 6 6 5 5 5 5 5 4 4 4
Wind_Direction
170 179 204 229 207 73 64 63 65 72 66 59 57 53 56 42 38 77 96 106 113 116 114 118 108 108 105 107 111 111 111 109 113 120 121 122 123 123 122 122 124 124 125 125 123 123 121 121 121
174 188 224 242 54 71 67 62 66 65 81 86 74 74 74 66 65 96 114 116 123 115 114 104 107 109 107 108 112 112 111 110 110 117 122 122 121 121 122 122 125 127 127 126 127 128 126 125 122
183 225 265 51 55 60 68 68 77 84 89 85 83 63 59 75 88 102 115 130 126 110 110 104 111 112 114 113 116 115 113 112 111 114 122 121 117 122 125 126 129 128 125 125 127 126 126 126 125
210 215 209 67 68 64 70 79 88 94 86 82 96 89 78 72 86 109 125 135 124 122 119 108 111 114 117 116 118 117 115 113 112 112 115 115 112 123 127 128 129 126 124 124 124 126 126 126 125
241 247 89 75 70 71 72 75 73 79 83 90 94 98 91 83 103 117 130 131 128 124 115 113 109 112 119 119 117 113 113 115 117 117 114 113 113 113 119 118 120 121 122 122 123 125 128 130 129
243 16 66 72 76 79 83 84 86 88 98 100 105 104 95 113 121 127 130 130 124 123 119 117 123 117 117 122 121 120 119 119 119 121 120 121 120 115 115 115 118 120 120 122 124 127 129 132 131
350 50 65 71 82 84 79 79 77 95 104 100 108 105 116 127 127 130 128 126 124 123 124 127 135 135 129 118 125 121 125 126 119 120 122 122 121 118 116 117 119 120 122 123 123 125 129 132 133
314 64 73 71 73 82 96 92 82 83 92 107 114 113 130 136 139 135 133 132 125 126 126 130 133 127 138 135 128 123 118 117 116 119 125 127 132 131 130 132 122 124 127 126 126 128 129 132 137
267 59 68 67 70 92 110 108 98 94 114 113 89 93 119 136 145 145 143 141 140 140 138 133 130 131 133 129 129 140 135 130 138 132 132 149 141 132 142 116 125 133 132 129 129 131 134 144 149
283 61 68 69 80 100 112 107 121 133 127 121 114 110 127 145 156 158 153 153 151 150 148 140 141 139 135 126 133 146 146 136 143 124 132 131 115 114 112 120 134 137 134 135 134 142 166 192 158
32 62 82 95 97 109 121 119 128 132 123 129 138 141 149 156 164 163 155 152 145 146 149 155 146 139 135 136 140 134 132 131 134 120 121 120 135 135 133 139 148 151 158 156 150 176 177 162 136
113 87 98 109 117 124 120 123 128 107 90 117 137 147 156 164 166 165 156 150 144 149 156 153 146 147 146 133 132 154 146 134 126 127 139 132 128 129 120 129 135 150 148 149 154 151 145 152 163
144 113 123 129 139 133 136 134 124 123 117 129 140 153 162 166 166 165 161 159 159 161 161 157 157 153 158 160 184 143 136 138 133 139 143 153 152 143 132 130 140 148 140 157 168 164 154 172 183
105 132 137 143 142 150 158 146 155 140 144 148 155 164 169 170 170 167 174 176 175 173 170 165 171 166 172 174 174 162 153 142 146 156 149 167 159 140 151 157 157 154 160 150 174 174 175 197 193
160 156 154 160 166 166 184 177 170 147 158 165 169 173 175 179 179 182 182 184 181 178 177 175 179 176 178 184 184 175 173 159 169 155 160 183 180 157 178 160 180 162 161 169 193 186 191 200 199
194 200 184 164 184 180 226 188 149 159 172 176 178 180 185 188 193 190 188 188 183 181 179 187 188 176 180 186 193 182 176 165 174 173 164 183 185 183 198 193 188 171 197 192 187 210 196 201 219
209 224 200 162 190 197 230 227 145 170 183 184 186 187 191 192 201 196 194 189 187 186 184 186 190 184 185 181 189 193 183 194 189 184 187 180 191 192 213 206 175 203 203 207 222 179 214 206 222
223 233 215 198 185 214 231 234 163 182 194 194 193 194 196 201 202 196 195 191 189 188 188 189 189 187 186 184 187 196 197 200 200 196 197 197 197 197 216 204 193 217 207 207 222 224 231 229 224
260 251 239 209 187 222 236 241 203 190 203 202 199 201 203 207 199 192 193 192 188 188 188 191 195 185 188 190 195 193 194 198 200 206 200 204 207 198 217 231 193 218 212 222 222 228 217 223 212
236 239 230 194 177 230 244 244 221 196 209 210 206 204 208 204 194 190 192 191 191 190 190 191 195 192 196 191 198 202 206 211 206 214 199 213 211 212 208 220 222 215 216 220 227 231 244 234 212
230 240 237 216 185 215 247 231 204 195 208 212 214 212 210 206 199 191 193 194 193 192 193 194 196 194 199 193 194 192 196 217 202 204 201 210 214 217 229 223 230 225 230 220 225 226 232 240 231
226 231 242 223 223 215 237 258 188 192 202 208 211 210 209 204 201 194 192 194 195 193 190 193 193 196 194 197 203 204 209 213 209 207 196 199 211 221 222 230 234 236 243 237 236 222 235 240 243
240 224 221 228 236 249 226 262 212 184 210 208 207 206 205 200 198 195 194 193 193 189 187 186 188 192 193 200 202 210 218 218 208 201 194 212 205 215 226 232 236 234 241 245 255 246 243 238 243
172 182 194 226 240 239 238 256 252 207 230 220 204 199 199 195 193 191 189 186 187 185 183 182 184 190 192 197 203 210 216 217 215 212 205 211 203 206 211 226 230 236 246 242 246 248 238 244 250
204 214 216 220 225 236 211 246 260 279 262 244 217 196 192 188 188 185 184 183 184 184 183 181 183 188 192 196 203 207 212 211 212 219 214 224 219 209 208 227 226 231 236 243 244 242 251 243 245
217 231 237 244 240 225 197 238 239 226 281 255 219 187 182 182 183 183 182 182 182 183 183 182 182 187 191 195 201 205 209 214 211 209 228 220 233 232 214 219 225 230 235 241 236 243 240 240 245
221 233 250 253 257 264 236 224 214 204 218 199 179 169 174 178 176 177 178 180 180 182 183 183 182 188 192 194 196 202 206 216 215 204 216 223 221 221 207 215 223 227 233 243 247 248 253 252 252
261 238 231 244 246 248 241 233 231 211 213 180 174 171 165 167 172 171 173 176 177 178 179 182 184 189 191 193 197 195 199 204 208 215 213 221 220 221 214 215 220 225 227 228 237 244 247 256 255
194 214 232 241 249 251 249 228 111 180 232 196 176 170 162 166 165 163 166 170 174 174 175 179 184 190 191 192 193 199 198 199 203 208 212 213 215 211 216 218 220 224 224 223 229 246 244 249 256
237 229 221 232 233 246 265 233 94 102 83 72 124 141 156 159 155 153 153 161 170 175 176 179 185 192 192 187 188 193 196 198 202 203 207 207 210 212 214 219 219 219 219 219 224 235 238 243 248